Location: MAC-Johnson Site
(33.6264°N, 81.2093°W)
Time: 12:10:12
(UTC-04:00)

ARIANE 6 FM1 Upper Stage - Visible Passes

Search period start: 08 September 2024 00:00
Search period end: 18 September 2024 00:00
Orbit: 567 x 594 km, 62.0° (Epoch: 06 September)

Date Brightness Start Highest point End Pass type
(mag) Time Alt. Az. Time Alt. Az. Time Alt. Az.
14 Sep 6.0 06:14:23 10° NNE 06:15:14 10° NE 06:16:05 10° NE visible
15 Sep 5.6 06:17:30 10° N 06:20:17 16° NE 06:23:03 10° E visible
16 Sep 5.1 06:21:35 10° N 06:25:14 25° NE 06:28:51 10° ESE visible
17 Sep 4.2 06:25:57 10° NNW 06:30:05 41° NE 06:34:11 10° SE visible
17 Sep 4.7 20:25:45 10° SSE 20:26:26 12° SE 20:26:26 12° SE visible
